Location: Clatteringshaws Loch
(55.0508°N, 4.2860°W)
Time: 01:47:07
(UTC+01:00)

Daily predictions for brighter satellites

Satellite Brightness Start Highest point End
(mag) Time Altitude Azimuth Time Altitude Azimuth Time Altitude Azimuth
ADEOS Rocket 4.4 02:33:49 10° NNE 02:38:43 45° NNE 02:38:43 45° NNE
CENTAUR R/B 3.8 02:56:20 40° NE 02:56:20 40° NE 03:00:56 10° NE
CZ-2D R/B 4.3 03:02:46 10° NNE 03:04:52 22° NE 03:04:52 22° NE
ATLAS 3B R/B 3.8 03:10:19 39° NNE 03:10:19 39° NNE 03:15:34 10° ENE
Cosmos 2297 Rocket 4.3 03:11:16 21° N 03:12:14 22° NNE 03:16:33 10° ENE
COSMOS 2455 4.3 03:29:08 33° NNE 03:29:08 33° NNE 03:32:34 10° NE
Cosmos 1943 Rocket 4.0 03:30:06 26° ENE 03:30:06 26° ENE 03:33:20 10° NE
Cosmos 2263 Rocket 4.5 03:32:43 16° N 03:33:03 16° N 03:36:30 10° NNE
SeaSat 1 4.4 04:00:07 10° NNE 04:02:19 23° N 04:02:19 23° N
Cosmos 2278 Rocket 3.9 04:08:59 23° N 04:08:59 23° N 04:12:27 10° NNE
Resurs 1-4 Rocket 3.4 04:07:11 10° NNE 04:10:12 35° N 04:10:12 35° N
Cosmos 2227 Rocket 3.3 04:17:04 23° NNW 04:20:06 41° NE 04:25:27 10° ESE
ADEOS 4.4 04:15:27 10° NNE 04:19:03 45° NNE 04:19:03 45° NNE
NOSS 3-2 (C) 4.5 04:20:15 39° NNW 04:21:32 43° N 04:28:38 10° ENE
Cosmos 1937 Rocket 4.3 04:22:10 48° E 04:22:10 48° E 04:26:52 10° NE
Cosmos 2369 Rocket 2.6 04:24:58 58° NNE 04:24:58 58° NNE 04:29:30 10° NNE
USA 215 3.5 04:18:26 10° ENE 04:24:52 56° SE 04:25:11 55° SSE
Cosmos 1898 Rocket 4.1 04:26:48 53° ENE 04:26:48 53° ENE 04:30:56 10° NNE
ADEOS Rocket 4.3 04:19:44 10° N 04:25:41 36° NW 04:25:41 36° NW
Nadezhda 1 Rocket 4.4 04:26:54 45° SSE 04:28:40 61° E 04:34:53 10° NNE
Meteor 1-21 4.4 04:34:52 67° N 04:34:52 67° N 04:39:55 10° NNE
Cosmos 990 Rocket 4.4 04:38:02 58° ESE 04:38:02 58° ESE 04:42:57 10° NNE
Lacrosse 5 2.3 04:39:22 59° ENE 04:39:22 59° ENE 04:43:30 10° ENE
ADEOS II 2.9 04:36:08 10° NNE 04:41:15 49° E 04:42:59 35° SSE
CENTAUR R/B 3.4 04:43:31 40° NW 04:45:06 46° N 04:52:32 10° ENE
Cosmos 1656 Rocket 4.3 04:45:39 42° SSE 04:47:00 51° ESE 04:52:28 10° NE
CZ-2D R/B 3.2 04:42:53 10° N 04:46:12 34° NNW 04:46:12 34° NNW
USA 229 DEB 4.0 04:47:00 47° S 04:48:45 61° SE 04:55:38 10° NE
USA 229 4.0 04:47:05 47° S 04:48:51 61° SE 04:55:43 10° NE
Cosmos 489 Rocket 4.3 04:50:20 73° SSW 04:51:00 89° W 04:57:20 10° NNE
Cosmos 2219 4.1 04:54:05 35° SSE 04:54:05 35° SSE 04:57:18 10° SSE
Cosmos 2297 Rocket 2.8 04:53:08 17° NNW 04:57:32 56° NE 05:03:05 10° SE
Cosmos 1048 Rocket 4.0 04:58:50 71° SSE 04:58:50 71° SSE 05:03:30 10° SSE
USA 267 4.1 04:54:15 10° SSE 04:58:16 31° S 04:58:16 31° S
Okean O Rocket 3.1 04:56:50 10° NNE 05:00:53 34° E 05:04:39 12° SSE
ATLAS 3B R/B 3.3 04:57:35 27° NW 05:01:12 51° NNE 05:07:39 10° E
Cosmos 2154 Rocket 3.9 04:54:52 10° NNW 05:01:14 73° W 05:04:08 34° S
Cosmos 1378 4.2 05:03:40 44° NE 05:03:40 44° NE 05:06:37 10° NNE
Cosmos 1758 Rocket 3.9 05:03:11 61° SE 05:03:35 64° E 05:08:04 10° NNE
ARIANE 5 R/B 3.6 04:59:33 10° N 05:02:34 30° NNW 05:02:34 30° NNW
SL-8 Rocket 4.3 04:59:37 10° N 05:05:56 67° ENE 05:12:14 10° SSE
Cosmos 2082 4.1 05:03:22 14° NNW 05:08:14 62° NE 05:13:50 10° SE
Cosmos 2298 Rocket 3.9 05:10:55 73° WSW 05:11:21 79° WNW 05:16:44 10° NNE
Cosmos 1943 Rocket 2.1 05:11:39 64° WNW 05:11:57 65° NW 05:17:33 10° NNE
ATLAS CENTAUR R/B 2.6 05:12:38 29° NNE 05:13:04 30° NNE 05:16:28 10° E
COSMOS 2455 4.1 05:12:17 25° NW 05:13:53 28° NNW 05:19:02 10° NE
Cosmos 1356 Rocket 4.2 05:15:53 25° SSE 05:18:07 52° E 05:22:20 10° NNE
Cosmos 2263 Rocket 4.3 05:15:00 10° NNW 05:19:12 21° NNE 05:23:24 10° ENE
Meteor 1-16 Rocket 4.1 05:14:13 10° NNW 05:19:53 77° W 05:25:41 10° S
Cosmos 1707 2.9 05:21:53 67° NNE 05:21:53 67° NNE 05:25:22 10° NNE
COSMO-SKYMED 1 4.2 05:21:38 10° SE 05:25:35 34° ENE 05:29:32 10° N
CZ-4B R/B 4.0 05:20:54 10° NNE 05:26:13 51° E 05:31:37 10° S
Cosmos 1809 Rocket 4.3 05:23:38 10° NNW 05:29:44 71° W 05:35:49 10° S
Cosmos 1842 Rocket 3.9 05:25:40 10° N 05:30:02 64° ENE 05:34:21 10° SSE
Cosmos 962 Rocket 4.4 05:26:43 10° NNW 05:32:46 60° W 05:38:45 10° S
Cosmos 1340 Rocket 3.5 05:35:26 40° NNW 05:35:26 40° NNW 05:38:29 10° N
Meteor 2-5 Rocket 3.9 05:29:11 10° S 05:35:02 76° E 05:40:47 10° NNE
USA 238 DEB 4.1 05:32:15 20° NW 05:37:22 64° NNE 05:44:28 10° ESE
USA 238 4.1 05:32:21 20° NW 05:37:28 63° NNE 05:44:34 10° ESE
Cosmos 2218 Rocket 4.0 05:32:08 10° N 05:38:24 89° E 05:44:43 10° S
SeaSat 1 4.4 05:38:11 10° NNE 05:40:57 15° NNW 05:42:05 14° NNW
Meteor PRIRODA 4.5 05:40:19 10° NNE 05:44:01 51° E 05:47:42 10° S
MOS 1-B 4.2 05:40:44 10° NNE 05:46:30 71° WNW 05:50:44 19° SSW
PSLV R/B 3.4 05:42:21 10° NNE 05:46:39 75° WNW 05:48:36 32° SSW
EO 1 Del DPAF 3.8 05:43:35 10° SSE 05:47:22 60° ENE 05:51:11 10° N
SJ 16-02 1.8 05:44:46 13° S 05:48:36 61° ESE 05:52:58 10° NNE
Cosmos 1932 4.5 05:43:34 18° NW 05:48:40 88° NE 05:55:04 10° SE
Landsat 4 3.5 05:46:41 10° SSE 05:50:26 76° WSW 05:54:13 10° NNW
Cosmos 372 Rocket 4.3 05:45:30 10° SSW 05:50:41 67° ESE 05:55:56 10° NNE
Resurs 1-4 Rocket 3.7 05:47:58 10° N 05:51:16 19° NW 05:51:16 19° NW
USA 81 4.1 05:46:51 10° S 05:52:08 83° E 05:57:27 10° N
Meteor 2-21 Rocket 4.3 05:46:27 10° NNW 05:52:28 64° W 05:58:27 10° S
Cosmos 2278 Rocket 4.3 05:50:49 11° NW 05:53:58 16° N 05:57:27 10° NE
Cosmos 1269 Rocket 4.3 05:51:39 27° NW 05:54:01 43° WSW 05:59:00 10° S
Cosmos 1825 Rocket 4.0 05:54:09 39° WNW 05:54:09 39° WNW 05:58:20 10° N
Cosmos 1953 Rocket 3.7 05:54:42 44° WSW 05:55:21 48° WNW 05:59:35 10° N
Cosmos 2341 Rocket 4.3 05:51:14 10° NNW 05:57:14 44° W 06:03:13 10° SSW
CZ-2C R/B 3.7 05:54:51 10° S 05:59:34 67° WSW 06:04:14 10° NNW
Meteor 1-28 Rocket 3.1 05:56:29 10° SSE 06:00:18 84° WSW 06:04:10 10° NNW
Cosmos 1959 Rocket 4.4 05:56:08 10° NNW 06:02:25 67° W 06:08:35 10° S
Cosmos 1937 Rocket 4.1 06:02:22 31° W 06:03:55 38° NW 06:08:53 10° NNE
Cosmos 1607 4.0 05:58:42 16° NW 06:03:59 71° SW 06:10:25 10° SSE
Cosmos 2227 Rocket 2.2 05:58:59 11° NW 06:04:24 55° WSW 06:09:55 10° S
Cosmos 2181 Rocket 3.9 05:58:46 10° SSW 06:04:57 71° WNW 06:11:06 10° N
CZ-4B R/B 2.8 06:02:55 10° N 06:06:23 45° WNW 06:06:54 42° W
USA 116 3.8 06:04:10 10° S 06:08:05 64° WSW 06:12:35 10° NNW
USA 215 3.2 06:01:37 10° ENE 06:08:11 85° NNW 06:12:31 23° W
Cosmos 1898 Rocket 4.4 06:07:07 27° WNW 06:08:18 29° NW 06:12:52 10° NNE
Cosmos 2369 Rocket 3.3 06:06:47 23° WNW 06:08:37 28° NNW 06:13:27 10° NNE
Cosmos 494 Rocket 3.9 06:06:04 10° NNW 06:11:11 64° WSW 06:16:20 10° SSE
SKYMED 2 3.6 06:09:10 10° SSE 06:13:31 85° ENE 06:17:54 10° NNW
NOSS 3-2 (C) 4.4 06:07:41 14° NW 06:13:45 58° NNE 06:21:28 10° ESE
SL-08 R/B 4.4 06:07:53 10° NNW 06:13:59 65° W 06:20:09 10° S
Cosmos 1125 Rocket 3.4 06:13:25 10° SSW 06:18:42 76° WNW 06:24:03 10° NNE
Cosmos 1356 3.3 06:15:24 10° SSW 06:18:53 77° WNW 06:22:25 10° NNE
MTI 3.9 06:17:19 10° S 06:20:29 51° WSW 06:23:41 10° NNW
ADEOS II 2.7 06:16:06 10° N 06:20:53 36° WNW 06:23:55 20° WSW
Lacrosse 5 2.0 06:18:34 24° WNW 06:21:39 73° N 06:26:45 10° E
Thor Agena Rocket 4.2 06:17:16 10° SE 06:22:25 59° ENE 06:27:32 10° NNW
Meteor 1-24 Rocket 3.8 06:18:17 10° SSW 06:24:16 76° WNW 06:30:06 10° NNE
Cosmos 1726 2.4 06:21:07 10° N 06:24:48 68° ENE 06:28:27 10° SSE
IDEFIX/ARIANE 42P 4.0 06:21:02 10° NNE 06:26:00 41° E 06:30:55 10° SSE
CZ-2D R/B 4.0 06:24:43 10° NNW 06:26:51 12° NW 06:27:31 12° NW
Cosmos 1674 3.1 06:24:30 10° S 06:28:11 64° E 06:31:55 10° NNE
SJ-6F 4.3 06:25:15 10° NNE 06:29:22 80° WNW 06:33:26 10° SSW
Cosmos 1656 Rocket 4.1 06:27:04 19° WSW 06:30:45 43° NW 06:36:09 10° NNE
NOSS 3-1 (C) 3.5 06:30:22 13° WSW 06:35:49 78° NW 06:42:50 10° NE
Meteor 2-10 4.4 06:30:29 10° NNW 06:35:57 77° ENE 06:41:35 10° SSE
CENTAUR R/B 3.6 06:30:42 12° WNW 06:37:14 50° NNE 06:45:05 10° E
Okean O Rocket 2.1 06:33:14 10° N 06:37:19 38° WNW 06:41:24 10° SW
Cosmos 2366 rocket 4.3 06:33:51 10° NNW 06:39:36 43° W 06:45:21 10° SSW
USA 229 DEB 3.9 06:34:28 17° WSW 06:39:54 58° NNW 06:46:54 10° NE
USA 229 3.9 06:34:33 17° WSW 06:39:59 58° NNW 06:46:59 10° NE
Cosmos 2297 Rocket 2.7 06:36:16 10° NW 06:41:26 37° WSW 06:46:34 10° S
IRS-1C Rocket 4.2 06:37:06 10° N 06:42:17 55° WNW 06:47:25 10° SW
NOSS 3-1 (A) 3.5 06:37:22 10° SW 06:43:26 87° NW 06:50:28 10° NE
CZ-4B R/B 4.2 06:39:12 10° N 06:43:33 54° WNW 06:47:57 10° SW
NOSS 3-2 (A) 4.1 06:36:31 10° NW 06:43:39 76° NE 06:51:35 10° ESE
Cosmos 2251 Rocket 3.8 06:43:12 10° NW 06:48:21 47° WSW 06:53:27 10° S
In-Cosmos 22 4.3 06:43:33 10° SSW 06:49:11 59° WNW 06:54:55 10° N
DMSP B5D1-3 4.5 06:44:16 10° S 06:49:20 71° WSW 06:54:28 10° NNW
Cosmos 2221 2.7 06:46:40 10° NNW 06:50:55 48° W 06:55:08 10° SSW
Meteor 1-31 Rocket 3.2 06:47:32 10° N 06:51:07 39° WNW 06:54:41 10° SW
Cosmos 2082 4.4 06:47:04 10° NW 06:52:05 33° WSW 06:57:02 10° S
ATLAS CENTAUR R/B 1.1 06:48:55 12° NW 06:52:19 69° SW 06:56:11 10° SE
ATLAS 3B R/B 2.6 06:45:30 10° NW 06:52:19 73° SW 06:58:49 10° SE
Feng Yun 1-1 Rocket 4.3 06:49:07 10° NNE 06:54:44 85° WNW 07:00:29 10° SSW
Cosmos 2227 4.3 06:49:11 10° NNW 06:54:59 85° ENE 07:00:46 10° SE
Cosmos 1697 Rocket 3.8 06:50:44 10° S 06:56:09 49° ESE 07:01:37 10° NE
Cosmos 1943 Rocket 3.5 06:53:12 13° WNW 06:56:47 23° NNW 07:01:14 10° NNE
Okean-O 2.6 06:53:34 10° NNE 06:58:02 77° WNW 07:02:28 10° SSW
Cosmos 2084 Rocket 4.1 06:54:07 10° SSW 06:58:12 53° SE 07:02:07 10° ENE
Cosmos 1151 Rocket 4.5 06:55:25 10° N 06:59:36 41° ENE 07:03:43 10° SE
COSMOS 2455 4.3 06:56:22 10° NW 07:01:36 29° NNE 07:06:49 10° ENE
COSMO-SKYMED 1 3.1 06:57:41 10° SSW 07:01:43 37° W 07:05:48 10° NNW
Meteor 2-8 Rocket 4.5 06:58:12 10° SSW 07:04:16 62° WNW 07:10:21 10° N
Cosmos 2263 Rocket 3.0 06:58:56 10° NNW 07:04:28 52° NE 07:09:56 10° SE
CZ-4B R/B 3.7 07:01:44 10° N 07:06:42 37° WNW 07:11:43 10° SW
Cosmos 1908 4.2 07:03:32 10° NNW 07:06:44 25° W 07:09:54 10° SW
KORONAS-FOTON 3.7 07:04:17 10° SSW 07:08:03 69° WNW 07:11:53 10° N
Meteor 2-2 Rocket 4.3 07:03:50 10° NNW 07:09:32 84° WSW 07:15:17 10° S
Cosmos 1980 Rocket 3.8 07:05:58 10° S 07:11:09 40° ESE 07:16:24 10° NE
Cosmos 1934 Rocket 4.0 07:06:57 10° NNW 07:13:16 79° W 07:19:25 10° S
Cosmos 1821 Rocket 4.1 07:09:13 10° NNW 07:15:30 62° W 07:21:48 10° S
Meteor 1-21 Rocket 4.2 07:13:17 10° SSW 07:19:00 74° WNW 07:24:41 10° NNE
Cosmos 724 4.3 07:17:15 10° NW 07:23:08 81° SW 07:28:55 10° SE
Cosmos 2369 3.7 07:17:32 10° SW 07:23:11 77° NW 07:28:53 10° NNE
Cosmos 1455 3.2 07:21:23 10° N 07:25:09 51° ENE 07:28:51 10° SSE
Cosmos 1515 Rocket 3.8 07:21:27 10° N 07:25:49 78° ENE 07:30:10 10° SSE
Meteor 1-27 4.5 07:20:34 10° NNW 07:26:28 86° ENE 07:32:19 10° SSE
SJ 16-02 2.4 07:23:54 10° WSW 07:27:34 25° NW 07:31:16 10° N
USA 238 DEB 4.0 07:21:32 10° NW 07:28:23 54° SW 07:35:18 10° SSE
USA 238 4.0 07:21:38 10° NW 07:28:29 54° SW 07:35:25 10° SSE
Cosmos 1300 3.2 07:26:34 10° NNW 07:30:09 38° W 07:33:43 10° SSW
